Location: Glendale
(37.4556°N, 88.6714°W)
Time: 03:17:43
(UTC+00:00)

Okean O Rocket - Pass Details

Date: 08 December 2019
Orbit: 624 x 644 km, 98.2° (Epoch: 25 January)

Event Time Altitude Azimuth Distance (km) Brightness Sun altitude
Rises 11:41:55 0° 9° (N) 2,926 4.9 -14.4°
Reaches altitude 10° 11:44:07 10° 6° (N) 2,017 4.1 -14.0°
Maximum altitude 11:48:28 65° 285° (WNW) 700 1.5 -13.2°
Drops below altitude 10° 11:52:48 10° 204° (SSW) 2,016 4.1 -12.4°
Sets 11:55:01 0° 201° (SSW) 2,923 5.0 -12.0°
